Showing default

SHIJIAN 6 05B (SJ-6 05B), 49962

Orbit data source: Space-Track

SHIJIAN 6 05B (SJ-6 05B), 49962 is a payload satellite owned by CASC (CN) in SSO that was launched on Fri, 10 Dec 2021 UTC via a CHANG ZHENG 4B launch vehicle from the Jiuquan Satellite Launch Center, China (JSC). Payload-class satellites include a variety of spacecraft equipped with specific instruments for various scientific and technological missions. These include communications satellites like Starlink; space stations such as the ISS; scientific satellites like the Hubble; Earth observation satellites from companies like Planet Labs, Umbra, and HawkEye 360; GPS; miniature CubeSats for education and research; and military/defense satellites.

Loading next visibility...
Identifier
49962, 2021-122B
Orbit
SSO
Country
Flag of CNCN / PRC
Related business
Manufacturer
SAST
Mission
Operational Defense Sigint
Bus & Motor
SJ6-5A, Unknown motor
Mass
~350 kg wet, ~350 kg dry
Launch date (UTC)
2021-12-10 (4 years ago)
Launch vehicle
CHANG ZHENG 4B
Launch site
Jiuquan Satellite Launch Center, China (JSC)
Object type
Payload
Rocket body
Debris
Shape & HBR
Box + 2 Pan, 2.0 m
Radar Cross Section
2.315 m², Large (>1 m²)

Expand to show TLE details & history
Last TLE update: 19 hours ago

TLE from 19 hours ago
0 SHIJIAN 6 05B (SJ-6 05B)
1 49962U 21122B   25352.77565644  .00002306  00000-0  14203-3 0  9993
2 49962  97.3612 334.8197 0000939  33.5728 326.5562 15.10939465222495
Epoch: 2025-12-18T18:36Z
TLE epoch observation values (Epoch: 2025-12-18T18:36:56.716Z)
Latitude
0.00001°
Longitude
-32.04294°
Altitude
535.871 km
Speed
7.595 km/s
True Right ascension
22h 19m 16s
True Declination
0° 00' 00"
Sunlit
Object was in daylight at epoch
Visualization orbit readout
Latitude
Unknown
Longitude
Unknown
Altitude
Unknown
Speed
Unknown
Apparent Right ascension
Unknown
Apparent Declination
Unknown
Sunlit
N/A
Visualization observer readout
Local Sidereal Time
12:43:30
Azimuth
Unknown
Elevation
Unknown
Doppler factor
Unknown
Orbital elements
Apogee altitude
530.958 km
Perigee altitude
529.661 km
Semi-major axis
6,908.447 km
Eccentricity
0.00009
Inclination
97.3612°
RAAN
334.8197°
Arg. of periapsis
33.5728°
True anomaly
326.55027°
Mean anomaly
326.5562°
Eccentric anomaly
326.55323°
Mean motion
3.77983 °/min
Orbital period
95.24 mins
BSTAR
0.00014203
Loading maneuver chart data...
Computing Atmospheric mass density...
Loading historical data...
Loading historical data...
Loading historical data...
Loading historical data...
Loading historical data...
Loading historical data...
Loading historical data...

Documentation

Showing up to 5 results
|